Overview Statistics Trail Chart Weather Telemetry Raw packets
 

This is the latest recevied weather packets stored in our database for station/object KD7AWQ. If no packets are shown the sender has not sent any weather packets the latest 10 day(s).

<< 22 23 24 25 26 27 28 >>
Time Temp. Humidity Pressure Rain* Wind** Luminosity Snow
1788289644 28.89° C 38% 1189.7 hPa 0 mm - 1070 W/m² -
1788289344 29.44° C 38% 1189.7 hPa 0 mm - 1062 W/m² -
1788289042 28.89° C 39% 1189.9 hPa 0 mm - 1058 W/m² -
1788288741 27.78° C 40% 1189.9 hPa 0 mm - 1042 W/m² -
1788288437 28.33° C 41% 1189.9 hPa 0 mm - 1019 W/m² -
1788288132 27.78° C 42% 1190 hPa 0 mm - 1008 W/m² -
1788287828 27.78° C 42% 1190 hPa 0 mm - 1001 W/m² -
1788287527 27.78° C 42% 1190 hPa 0 mm - 1009 W/m² -
1788287224 27.78° C 44% 1190 hPa 0 mm - 995 W/m² -
1788286922 26.67° C 44% 1190 hPa 0 mm - 988 W/m² -
1788286618 26.67° C 45% 1190.4 hPa 0 mm - 980 W/m² -
1788286312 27.22° C 47% 1190.3 hPa 0 mm - 974 W/m² -
1788286012 27.78° C 44% 1190.4 hPa 0 mm - 963 W/m² -
1788285705 27.78° C 43% 1190.1 hPa 0 mm - 968 W/m² -
1788285404 27.22° C 45% 1190.4 hPa 0 mm - 989 W/m² -
1788285099 26.67° C 47% 1190.5 hPa 0 mm - 1014 W/m² -
1788284794 26.11° C 48% 1190.7 hPa 0 mm - 955 W/m² -
1788284490 25.56° C 49% 1190.6 hPa 0 mm - 915 W/m² -
1788284185 25.56° C 50% 1190.8 hPa 0 mm - 690 W/m² -
1788283875 25° C 51% 1190.6 hPa 0 mm - 645 W/m² -
1788283593 25.56° C 50% 1190.6 hPa 0 mm - 626 W/m² -
1788283269 25.56° C 50% 1190.5 hPa 0 mm - 770 W/m² -
1788282968 25° C 50% 1190.7 hPa 0 mm - 697 W/m² -
1788282663 25° C 51% 1190.6 hPa 0 mm - 467 W/m² -
1788282361 25° C 52% 1190.7 hPa 0 mm - 540 W/m² -

* Rain latest hour (hover to see other rain measurements)
** Current wind speed in m/s (hover to see current wind gust speed)